Погода в Ленинградском

Россия / Самарская область     52°26′18″N   51°08′24″E
темп.,
°C
ветер,
м/с
пор.,
м/с
влажн.,
%
обл.,
%
осадки,
мм/ч
давл.,
гПа
погр.,
м
17 мая, пн
пн1701:00+20ююв48498 0.0 1018109
04:00+19ююв474827 0.0 101889
07:00+22ю49486 0.0 1019218
10:00+28ю57265 0.0 1019626
13:00+31ю65174 0.0 10183101
16:00+31ю45173 0.0 10183412
19:00+28ю33290 0.0 101741
22:00+22ю33343 0.0 101816
18 мая, вт
вт1801:00+22вюв22285 0.0 101711
04:00+20в22320 0.0 101711
07:00+22вюв24380 0.0 1018105
10:00+28юв45250 0.0 1017637
13:00+31вюв43170 0.0 10163424
16:00+31в33175 0.0 10163576
19:00+28всв35305 0.0 101599
22:00+23в34313 0.0 101646
19 мая, ср
ср1901:00+20в512535 0.0 1015193
04:00+18в5136195 0.0 1016256
07:00+20в611595 0.0 1016339
10:00+25в78430 0.0 1016810
13:00+27в89330 0.0 10151768
16:00+27в89320 0.0 10152093
19:00+24в711450 0.0 1015725
22:00+20вюв715520 0.0 1017560
20 мая, чт
чт2001:00+17вюв816550 0.0 1017588
04:00+15вюв715600 0.0 1018431
07:00+17вюв714560 0.0 1018565
10:00+21юв810420 0.0 10181167
13:00+24юв79310 0.0 10181857
16:00+24юв792918 0.0 10172256
19:00+22вюв593970 0.0 1017363
22:00+17вюв41050100 0.0 1017173
21 мая, пт
пт2101:00+16вюв4952100 0.0 1017150
04:00+15вюв41049100 0.0 1017200
07:00+20в374088 0.0 10171407
10:00+21вюв45373 0.0 10171340
13:00+24ю23321 0.0 10172259
16:00+25ю34295 0.0 10172756
19:00+24юв353780 0.0 1017147
22:00+21ююв354068 0.0 101883